Location: Williams Lake
(52.1170°N, 122.1500°W)
Time: 18:28:12
(UTC-07:00)

Daily predictions for brighter satellites

Satellite Brightness Start Highest point End
(mag) Time Altitude Azimuth Time Altitude Azimuth Time Altitude Azimuth
USA 229 DEB 3.9 21:48:35 10° NW 21:55:45 83° NE 22:03:01 10° SE
USA 229 3.9 21:48:41 10° NW 21:55:50 83° NE 22:03:07 10° SE
Cosmos 1833 Rocket 3.2 21:53:57 10° S 21:59:09 40° ESE 22:04:23 10° NE
Cosmos 1271 Rocket 4.0 21:56:24 10° N 21:59:49 28° ENE 22:03:14 10° SE
ATLAS 2AS CENTAUR R/B 4.5 21:52:52 10° WNW 22:00:22 37° N 22:07:42 10° ENE
Cosmos 1025 Rocket 3.7 21:57:07 10° SSW 22:01:20 58° WNW 22:05:34 10° N
Cosmos 1726 Rocket 4.1 21:59:29 10° NNW 22:03:45 58° W 22:07:59 10° S
Cosmos 967 Rocket 4.5 21:57:55 10° SSW 22:04:10 74° SE 22:10:28 10° NE
Cosmos 1437 Rocket 4.3 22:02:14 10° NNW 22:05:44 33° W 22:09:15 10° SSW
Landsat 7 4.3 22:02:43 10° SE 22:07:16 48° ENE 22:11:52 10° N
USA 234 3.9 22:01:24 10° ENE 22:07:49 60° N 22:14:13 10° W
Cosmos 1515 3.8 22:06:51 10° SSW 22:10:39 82° W 22:14:30 10° N
Orbus 7S? 4.5 22:01:44 10° WNW 22:11:43 90° SW 22:15:51 10° ESE
ATLAS CENTAUR R/B 2.1 22:11:07 10° NNW 22:14:39 39° NE 22:18:07 10° ESE
Cosmos 1809 Rocket 4.5 22:11:12 10° N 22:17:20 78° ENE 22:23:25 10° SSE
IGS 5A 4.3 22:16:23 10° SE 22:20:16 39° ENE 22:24:10 10° N
CARTOSAT-1 4.2 22:18:11 10° SE 22:22:17 45° ENE 22:26:25 10° N
Terra 2.3 22:17:46 10° SE 22:22:19 48° ENE 22:26:55 10° N
Cosmos 1066 Rocket 4.3 22:19:07 10° S 22:24:38 68° E 22:30:20 10° NNE
USA 245 2.9 22:23:39 10° S 22:25:51 41° WSW 22:28:01 10° NNW
Cosmos 2058 Rocket 4.0 22:22:24 10° NNW 22:26:40 47° W 22:30:56 10° SSW
Cosmos 2360 Rocket 3.9 22:22:06 10° NNW 22:26:50 26° NE 22:31:32 10° E
Cosmos 1980 Rocket 2.3 22:22:57 10° NNW 22:28:40 85° WSW 22:34:08 11° SSE
SL-08 RB Rocket 4.0 22:27:06 10° S 22:31:32 66° WSW 22:36:02 10° NNW
ARGOS 3.7 22:26:17 10° S 22:31:37 60° WSW 22:37:01 10° NNW
H-2A R/B 2.1 22:28:24 10° SSE 22:33:25 83° WSW 22:38:36 10° NNW
Meteor 1-4 Rocket 3.3 22:34:21 10° NNW 22:37:50 49° W 22:41:15 10° S
Cosmos 2218 Rocket 4.2 22:32:38 10° NNW 22:38:47 74° W 22:44:58 10° S
Cosmos 1953 3.3 22:35:54 10° N 22:39:42 35° ENE 22:42:56 13° SE
SPOT 5 3.5 22:36:05 10° S 22:40:15 45° W 22:44:34 10° NNW
Cosmos 2322 Rocket 2.7 22:35:37 10° NNW 22:41:14 54° NE 22:46:33 11° SE
Cosmos 1766 3.2 22:37:28 10° N 22:41:25 87° E 22:44:59 12° S
ISS -3.9 22:39:25 10° W 22:42:44 82° S 22:46:02 10° E
Timation 2 Rocket 4.1 22:37:07 10° S 22:43:13 55° ESE 22:49:09 10° NE
Cosmos 1812 Rocket 3.6 22:39:28 10° N 22:43:58 89° ENE 22:48:09 12° S
H-2A R/B 2.2 22:42:43 13° SSE 22:46:47 73° ENE 22:51:18 10° NNW
Spot 4 4.4 22:47:39 13° SE 22:51:43 50° ENE 22:56:23 10° N
Lacrosse 5 3.4 22:51:06 14° SE 22:52:44 16° ESE 22:55:47 10° E
Cosmos 1269 Rocket 4.2 22:47:55 10° S 22:53:05 57° ESE 22:58:18 10° NNE
Cosmos 1331 Rocket 4.2 22:48:05 10° NNW 22:53:15 62° ENE 22:57:35 14° SE
Cosmos 389 Rocket 3.0 22:51:02 10° N 22:54:24 46° ENE 22:56:50 17° SE
COSMOS 2487 4.0 22:51:50 10° SW 22:55:12 38° WNW 22:58:36 10° N
Cosmos 1470 4.0 22:52:18 10° N 22:55:53 30° ENE 22:58:43 14° SE
Cosmos 972 Rocket 4.3 22:50:44 10° NNW 22:55:57 57° ENE 23:00:01 15° SE
CZ-3A R/B 1.4 22:55:03 10° SW 22:55:33 14° SSW 22:55:33 14° SSW
Cosmos 1626 Rocket 3.6 22:52:56 10° SSW 22:57:15 82° W 23:01:38 10° N
Cosmos 1048 Rocket 4.0 22:52:19 10° S 22:57:22 62° ESE 23:02:33 10° NNE
Cosmos 1110 Rocket 4.1 22:52:59 10° NNW 22:58:17 74° ENE 23:02:34 15° SSE
DMSP B5D2-2 4.1 22:55:44 10° NNE 23:01:02 70° ESE 23:06:18 10° S
Lacrosse 5 rocket 1.6 22:57:24 10° WNW 23:02:03 77° SSW 23:05:59 14° SE
Meteor 1-21 4.3 22:58:33 10° S 23:04:13 72° E 23:10:00 10° NNE
Cosmos 2219 Rocket 4.4 23:04:02 10° NNW 23:08:10 20° NNE 23:12:18 10° ENE
Cosmos 1805 3.2 23:04:25 10° NNW 23:08:21 86° W 23:11:18 17° S
Nadezhda 3 Rocket 4.2 23:04:16 12° S 23:10:01 63° E 23:16:17 10° NNE
Cosmos 1825 Rocket 3.9 23:08:08 17° SSE 23:11:17 50° E 23:15:29 10° NNE
Cosmos 1953 Rocket 4.3 23:08:56 17° SSE 23:11:54 39° E 23:16:03 10° NNE
SeaSat 1 3.9 23:08:09 10° ESE 23:12:28 31° NE 23:16:47 10° NNW
Cosmos 2082 Rocket 2.7 23:06:52 10° SW 23:12:31 65° NW 23:18:09 10° NNE
SL-19 R/B 4.1 23:10:48 18° SSE 23:13:40 90° WSW 23:17:08 10° NNW
Cosmos 1821 Rocket 4.1 23:10:28 10° N 23:16:46 71° ENE 23:21:50 17° SSE
PSLV R/B 3.0 23:15:53 22° S 23:17:31 68° WSW 23:20:21 10° NNW
NOSS 3-1 (C) 4.1 23:11:26 10° NW 23:18:45 75° SW 23:25:34 16° SSE
Iridium 2 4.0 23:16:33 10° NNW 23:20:19 61° W 23:23:15 16° S
Cosmos 1697 Rocket 4.4 23:18:00 10° NW 23:22:23 24° WSW 23:26:45 10° SSW
Cosmos 1758 3.4 23:19:45 10° NNW 23:23:46 76° W 23:26:33 19° S
Cosmos-2242 3.5 23:20:11 10° N 23:24:23 49° ENE 23:27:09 20° SE
ALOS 2 4.0 23:26:07 13° ESE 23:29:20 29° ENE 23:33:07 10° N
CZ-4 R/B 4.0 23:26:24 10° NNE 23:31:27 72° ESE 23:35:30 16° S
Cosmos 1544 4.1 23:29:14 10° NNW 23:32:39 39° W 23:35:17 15° SSW
CZ-2C R/B 4.1 23:30:01 14° SE 23:34:23 42° ENE 23:39:47 10° N
SL-16 R/B 2.3 23:29:34 10° NNW 23:35:15 72° WSW 23:39:17 20° SSE
SL-24 R/B - RUBIN 2 4.5 23:28:58 10° SSW 23:35:38 74° SE 23:42:01 10° NE
Cosmos 1271 Rocket 4.2 23:32:23 10° NNW 23:35:52 31° W 23:38:59 12° SSW
Cosmos 2251 Rocket 4.0 23:35:02 19° S 23:38:34 45° ESE 23:43:41 10° NE
Cosmos 1605 Rocket 4.2 23:33:37 10° N 23:39:39 59° ENE 23:44:02 19° SSE
Cosmos 158 Rocket 4.4 23:36:13 10° SW 23:41:33 68° WNW 23:46:58 10° NNE
Cosmos 1733 3.1 23:38:18 10° N 23:42:10 87° E 23:44:21 25° SSE
Cosmos 1842 4.0 23:39:23 12° SSW 23:42:56 52° WNW 23:46:50 10° N
Cosmos 1833 Rocket 3.8 23:37:40 10° WSW 23:43:04 45° NW 23:48:31 10° NNE
Cosmos 1535 Rocket 4.5 23:39:01 10° NNW 23:45:09 81° W 23:49:44 19° S
deb Chang Zheng 4 3.7 23:41:07 10° NNE 23:45:26 72° WNW 23:49:10 13° SSW
Cosmos 2221 4.5 23:42:37 10° NNE 23:45:48 20° ENE 23:48:52 10° ESE
Cosmos 2098 Rocket 3.7 23:45:16 10° N 23:49:50 62° ENE 23:53:36 21° SSE
CZ-4B R/B 3.5 23:45:05 10° NNE 23:50:13 85° ESE 23:54:21 17° SSW
USA 234 3.6 23:44:01 10° E 23:50:31 68° NNE 23:57:00 10° WNW
Cosmos 1378 4.1 23:51:28 24° SE 23:52:59 34° E 23:56:24 10° NNE
ATLAS CENTAUR R/B 2.2 23:50:17 10° WNW 23:53:33 31° WSW 23:55:00 23° SSW
CZ-4C R/B 3.6 23:53:47 23° SSW 23:55:44 51° W 23:59:25 10° NNW
